Location: Grand Moustoir
(47.8355°N, 3.3120°W)
Time: 09:18:46
(UTC+00:00)

Cosmos 1606 Rocket - Pass Details

Date: 20 January 2020
Orbit: 602 x 633 km, 82.5° (Epoch: 27 February)

Event Time Altitude Azimuth Distance (km) Brightness Sun altitude
Rises 06:52:48 0° 216° (SW) 2,912 6.8 -10.2°
Reaches altitude 10° 06:55:17 10° 227° (SW) 2,006 5.9 -9.8°
Maximum altitude 06:59:10 29° 288° (WNW) 1,152 4.4 -9.2°
Drops below altitude 10° 07:03:04 10° 350° (N) 2,005 5.9 -8.6°
Sets 07:05:33 0° 1° (N) 2,911 6.8 -8.2°
